Lapse_Rate
6.3 6.0 5.7 5.6 5.4 5.4 5.3 5.2 5.1 5.0 5.0 5.3 5.4 5.5 5.6 5.7 5.7 5.6 5.5 5.3 5.3 5.4 5.4 5.5 5.5 5.5 5.6 5.6 5.5 5.4 5.3 5.3 5.2 5.1 5.1 4.8 4.8 4.8 4.5 4.8 4.6 4.8 5.1 5.1 5.0 5.0 5.1
6.2 5.9 5.7 5.6 5.5 5.4 5.3 5.2 5.2 5.1 5.2 5.4 5.5 5.6 5.7 5.8 5.8 5.7 5.7 5.7 5.6 5.4 5.5 5.6 5.6 5.7 5.6 5.6 5.5 5.4 5.3 5.2 5.1 5.0 4.9 4.8 4.8 4.9 4.8 4.8 4.7 4.9 4.9 5.0 5.1 5.1 5.2
6.0 5.8 5.7 5.5 5.4 5.4 5.4 5.5 5.6 5.6 5.6 5.7 5.7 5.6 5.7 5.8 6.0 6.0 6.1 6.1 5.9 5.6 5.6 5.7 5.8 5.8 5.7 5.6 5.4 5.3 5.2 5.1 5.1 5.0 5.0 4.8 4.8 4.8 4.7 4.7 4.8 4.8 4.5 4.9 5.1 5.1 5.0
6.0 5.8 5.7 5.5 5.4 5.4 5.6 5.7 5.8 5.9 5.8 5.8 5.8 5.8 5.8 6.1 6.1 6.3 6.4 6.3 6.1 6.0 5.8 5.8 5.9 5.8 5.6 5.5 5.4 5.3 5.2 5.1 5.0 5.0 5.0 4.9 4.9 4.8 4.7 4.6 4.7 4.3 4.7 5.0 4.8 5.0 5.1
5.9 5.9 5.7 5.6 5.6 5.6 5.7 5.9 6.1 6.2 6.1 6.1 6.0 5.9 6.0 6.1 6.3 6.4 6.4 6.3 6.1 6.0 5.8 5.6 5.7 5.6 5.5 5.5 5.4 5.4 5.3 5.1 5.0 5.0 5.0 4.9 4.8 4.8 4.7 4.3 4.6 4.8 5.3 5.5 5.1 5.0 4.9
5.8 5.7 5.7 5.7 5.7 5.6 5.7 6.0 6.2 6.4 6.4 6.3 6.2 6.2 6.2 6.3 6.3 6.2 6.2 6.2 6.2 6.0 5.7 5.6 5.5 5.4 5.4 5.5 5.4 5.3 5.3 5.2 5.1 5.0 5.1 5.0 4.8 4.4 4.5 4.6 5.0 4.7 5.0 5.2 5.3 5.0 5.1
5.6 5.6 5.7 5.8 5.8 5.9 6.0 6.2 6.4 6.4 6.5 6.5 6.5 6.5 6.4 6.4 6.2 6.1 6.2 6.1 6.0 5.7 5.6 5.6 5.4 5.4 5.4 5.4 5.3 5.2 5.3 5.3 5.2 5.1 4.8 5.0 4.6 4.5 4.8 4.8 4.7 4.8 4.5 5.1 5.5 4.9 5.0
5.6 5.6 5.7 5.7 5.8 6.0 6.0 6.2 6.4 6.5 6.5 6.7 6.7 6.6 6.6 6.4 6.4 6.4 6.3 6.1 5.9 5.8 5.6 5.6 5.5 5.4 5.4 5.3 5.2 5.1 5.2 5.3 5.4 5.3 5.3 4.9 4.8 5.0 5.1 5.0 5.0 4.5 5.0 5.5 5.0 5.0 5.1
5.7 5.7 5.7 5.8 5.9 6.1 6.2 6.2 6.4 6.6 6.6 6.6 6.6 6.6 6.6 6.5 6.5 6.4 6.3 6.0 5.8 5.7 5.6 5.7 5.5 5.3 5.3 5.3 5.2 5.2 5.3 5.3 5.3 5.4 5.3 5.1 5.1 5.2 5.2 4.8 4.8 4.8 4.9 4.8 4.7 4.9 5.2
5.8 5.8 5.8 5.8 6.0 6.1 6.3 6.4 6.4 6.6 6.6 6.6 6.7 6.6 6.6 6.7 6.7 6.6 6.3 6.2 6.0 5.7 5.5 5.6 5.5 5.4 5.3 5.3 5.2 5.2 5.3 5.3 5.4 5.4 5.3 5.2 5.3 5.3 5.2 4.9 5.1 5.1 5.2 5.0 4.5 4.5 5.5
5.7 5.7 5.8 5.9 5.9 6.0 6.2 6.3 6.5 6.6 6.7 6.7 6.6 6.6 6.6 6.7 6.7 6.7 6.6 6.4 6.1 5.7 5.5 5.4 5.4 5.3 5.2 5.2 5.2 5.1 5.3 5.4 5.4 5.4 5.3 5.3 5.4 5.4 5.2 5.3 5.1 5.1 5.3 5.3 5.2 4.6 4.9
5.8 5.8 5.9 5.8 5.8 5.8 5.9 6.2 6.4 6.5 6.6 6.7 6.6 6.6 6.6 6.7 6.7 6.7 6.6 6.4 6.1 5.7 5.0 5.4 5.4 5.3 5.2 5.2 5.2 5.1 5.3 5.3 5.5 5.6 5.5 5.4 5.6 5.6 5.5 5.5 5.3 5.2 5.2 5.0 5.1 4.8 5.6
5.8 5.8 5.9 5.9 5.8 5.8 5.9 5.9 6.1 6.2 6.4 6.5 6.4 6.5 6.5 6.6 6.7 6.7 6.7 6.5 5.9 5.7 5.5 5.4 5.3 5.3 5.2 5.2 5.2 5.2 5.3 5.3 5.3 5.3 5.2 5.1 5.5 5.6 5.6 5.6 5.3 5.0 5.2 5.9 5.9 5.8 6.8
5.6 5.7 5.8 5.9 5.9 5.8 5.8 5.9 5.9 5.9 6.2 6.3 6.3 6.4 6.5 6.6 6.7 6.7 6.6 6.4 5.9 5.7 5.5 5.4 5.4 5.3 5.3 5.3 5.4 5.3 5.1 4.8 5.3 5.2 5.0 5.0 5.3 5.7 5.8 5.6 5.2 5.1 5.2 5.6 5.8 6.4 6.7
5.6 5.6 5.7 5.8 5.9 5.8 5.7 5.8 5.8 5.7 5.9 6.1 6.4 6.4 6.4 6.5 6.6 6.6 6.5 6.2 6.0 5.7 5.6 5.5 5.6 5.3 4.9 5.4 5.4 5.3 5.2 5.1 5.1 5.2 5.1 5.0 5.6 5.8 6.0 5.8 5.4 5.1 5.4 5.0 5.0 5.5 5.0
5.6 5.6 5.7 5.9 5.9 5.9 5.8 5.8 5.8 5.7 5.7 6.0 6.2 6.3 6.4 6.4 6.5 6.4 6.4 6.2 6.1 5.8 5.7 5.6 5.4 5.6 5.2 5.4 5.3 5.1 5.2 5.3 5.1 4.9 4.7 4.8 4.8 5.8 5.9 5.8 5.6 5.3 5.3 5.3 5.4 6.1 6.1
5.7 5.8 5.8 5.9 6.0 5.9 5.8 5.8 5.8 5.7 5.6 5.7 5.9 6.1 6.2 6.3 6.3 6.1 6.0 6.0 6.0 5.9 5.8 5.7 5.6 5.5 5.5 5.5 5.7 5.4 5.3 5.3 5.0 4.8 4.7 4.5 4.8 6.0 5.6 5.6 5.3 5.2 5.4 5.3 5.3 5.6 6.6
5.7 5.9 6.0 6.1 6.0 6.2 6.0 5.9 5.9 5.8 5.8 5.8 5.9 5.9 6.1 6.2 6.1 6.1 6.0 6.1 6.1 6.0 5.9 5.9 5.8 5.6 5.5 5.5 5.6 5.4 5.4 5.3 5.1 4.7 4.2 4.5 4.3 5.0 5.8 5.6 5.9 5.8 5.8 5.6 5.8 6.1 5.6
5.7 5.8 6.0 6.2 6.2 6.2 6.2 6.1 6.0 5.7 5.7 5.8 5.8 6.0 6.1 6.1 6.0 6.1 6.2 6.2 6.2 6.2 6.0 5.8 5.7 5.6 5.5 5.5 5.4 5.6 5.6 5.6 5.3 4.9 4.3 4.2 4.2 4.9 6.4 5.9 5.9 5.8 5.3 5.2 5.3 5.2 5.4
6.1 6.2 6.2 6.3 6.2 6.2 6.1 6.2 6.0 5.9 5.8 5.7 5.8 5.9 6.1 6.1 6.0 6.0 6.1 6.0 6.0 6.0 6.0 5.8 5.7 5.6 5.5 5.5 5.4 5.4 5.4 5.4 5.4 5.0 5.0 4.5 4.4 5.0 5.9 6.1 5.5 5.2 5.6 5.3 5.2 5.0 5.3
6.3 6.5 6.6 6.5 6.4 6.3 6.2 6.2 6.2 6.0 5.8 5.8 5.8 5.9 6.1 6.0 6.1 6.0 6.0 6.0 5.9 5.9 6.0 5.9 5.8 5.6 5.4 5.1 5.0 5.2 5.5 5.2 5.3 5.7 5.1 4.9 4.6 4.7 5.1 5.0 5.1 5.3 6.7 6.0 5.3 6.1 5.1
6.6 6.7 6.7 6.6 6.3 6.3 6.3 6.3 6.2 6.0 5.8 5.7 5.7 5.7 5.9 6.0 6.0 6.0 6.0 6.0 6.0 5.9 5.9 5.9 5.7 5.4 5.3 5.2 4.7 4.6 4.5 5.1 4.4 4.7 5.0 5.1 4.9 4.6 4.7 5.1 5.2 5.5 7.0 6.1 6.3 6.7 5.7
6.8 6.8 6.8 6.6 6.5 6.2 6.0 6.2 6.3 6.2 6.0 5.7 5.7 5.7 5.7 5.9 6.0 5.9 6.1 6.0 5.9 5.9 5.9 5.9 5.6 5.3 5.2 5.1 4.9 5.0 5.3 5.1 5.0 4.9 4.6 4.7 5.1 4.8 4.6 4.9 4.6 5.6 7.4 7.2 6.8 7.1 6.8
6.7 7.1 7.0 6.7 6.5 6.3 6.2 6.2 6.2 6.2 6.1 5.8 5.6 5.5 5.5 5.5 5.7 5.9 6.0 6.0 6.0 5.8 5.9 5.9 5.7 5.4 5.4 5.1 5.0 5.2 5.5 5.4 5.2 5.6 5.6 4.8 5.0 5.0 4.9 4.9 4.9 6.5 6.8 7.2 6.9 6.8 7.1
6.4 6.9 6.9 6.5 6.5 6.4 6.3 6.1 6.0 5.9 6.0 6.0 5.9 5.6 5.6 5.4 5.7 5.8 5.8 5.8 5.9 5.7 5.8 5.9 5.8 5.4 5.2 4.9 4.8 4.3 4.9 4.8 5.2 5.7 5.9 6.0 5.0 5.2 5.4 5.6 5.6 6.3 6.8 6.8 6.4 6.1 6.4
6.0 6.3 6.4 6.4 6.4 6.2 6.3 6.4 6.1 6.1 6.2 6.1 5.8 5.8 5.9 5.8 5.9 6.0 5.9 6.0 5.9 5.9 5.7 5.9 5.8 5.5 5.1 4.8 4.9 4.7 5.0 5.5 4.9 5.2 5.6 6.0 5.5 5.1 5.3 5.3 6.0 6.6 6.6 6.4 6.2 6.1 6.1
5.7 5.9 6.0 6.1 6.0 6.1 6.0 6.1 6.1 5.9 5.9 5.8 5.8 5.7 5.7 5.7 5.8 5.8 5.8 5.7 6.0 5.9 5.6 5.2 5.3 5.1 5.1 5.3 5.0 5.0 4.9 5.0 5.1 5.3 5.4 5.5 5.5 5.4 5.4 5.5 5.5 6.3 6.6 6.4 6.0 6.1 5.9
5.7 5.7 5.7 5.8 5.8 5.9 5.8 5.9 5.8 5.9 5.8 5.6 5.8 5.7 5.8 5.6 5.3 5.5 5.5 5.7 5.8 5.9 5.5 5.2 4.9 5.0 5.4 5.5 5.1 5.1 5.1 4.9 5.0 5.4 5.4 5.5 5.8 5.6 5.4 5.2 5.7 6.2 6.1 5.9 6.0 5.9 5.9
5.5 5.5 5.6 5.6 5.7 5.7 5.8 5.7 5.6 5.5 5.6 5.6 5.7 6.0 5.9 5.4 5.3 5.4 5.1 5.5 5.7 5.4 5.2 5.0 5.3 5.1 5.1 5.6 5.4 5.3 5.0 4.8 5.1 4.8 5.3 5.5 5.9 6.2 6.0 6.2 6.7 6.4 6.4 6.3 6.0 6.1 6.0
Wind_Speed
12 12 13 13 14 16 16 17 19 19 21 22 23 24 24 22 19 19 15 8 8 7 5 4 3 3 4 3 6 11 15 11 6 5 9 7 7 4 3 3 4 6 4 3 4 2 0
11 11 12 13 14 14 15 17 19 21 21 22 23 23 23 22 20 19 13 5 6 7 6 4 3 5 4 4 5 11 11 8 11 9 10 11 6 7 4 4 6 2 3 5 4 3 2
10 10 11 12 13 16 17 18 20 21 22 23 23 23 23 23 21 19 10 4 5 4 3 3 4 3 10 5 4 9 7 6 8 8 5 8 5 6 4 2 2 4 4 4 7 5 3
9 10 11 12 14 15 16 18 20 21 22 24 23 24 24 24 22 20 7 2 2 1 2 4 4 4 5 1 5 7 10 2 5 5 5 4 6 4 5 3 2 4 5 6 8 5 4
8 9 10 11 13 15 15 15 17 20 22 23 25 25 25 26 24 20 7 3 3 3 3 4 3 4 4 1 3 8 8 6 5 2 3 1 1 2 3 4 5 4 8 11 4 6 3
8 9 11 13 15 16 16 18 19 21 22 23 24 26 25 27 26 21 5 4 5 3 3 2 1 3 4 5 5 6 7 4 3 4 3 2 2 3 6 8 5 10 11 11 10 2 7
7 10 13 15 16 17 16 18 19 21 23 24 24 25 25 26 24 20 6 3 3 4 10 6 4 3 3 6 1 8 5 5 2 1 4 3 3 7 8 6 6 8 11 13 8 5 6
7 9 11 13 16 17 17 19 20 21 22 22 23 24 24 24 18 16 3 3 4 4 6 2 2 2 2 3 2 12 11 4 4 5 4 4 7 5 4 4 7 10 13 9 4 1 8
9 11 12 13 15 17 18 20 20 21 21 22 22 23 25 24 9 5 8 5 3 4 2 3 3 3 3 5 3 10 11 4 5 6 6 4 4 2 4 6 10 12 7 11 11 16 14
9 11 10 13 15 16 18 19 19 20 21 22 23 23 26 25 1 2 4 5 2 2 3 5 3 3 2 3 1 4 6 4 1 5 5 3 2 3 5 4 8 10 6 9 13 11 4
8 9 10 12 15 15 17 17 18 19 21 23 24 26 22 13 2 3 5 4 1 3 1 5 3 2 4 4 7 5 2 3 5 5 5 4 4 4 5 5 5 6 14 12 9 8 8
8 8 9 11 13 14 15 16 17 18 21 23 23 25 15 2 3 3 4 1 2 3 2 2 3 7 3 5 4 8 4 3 1 2 1 3 1 2 4 7 5 13 13 11 4 4 3
8 8 10 11 10 12 13 15 17 19 20 22 23 17 6 3 3 4 1 3 2 2 2 4 4 6 5 6 4 8 6 9 6 6 7 6 1 1 3 10 5 11 13 3 3 2 4
8 8 9 9 8 9 12 14 17 18 20 20 25 11 2 3 3 2 2 3 1 1 3 2 3 4 3 7 3 6 4 4 8 6 7 5 2 3 5 3 6 7 6 4 5 6 10
6 6 6 6 6 10 12 13 16 17 20 23 23 2 2 3 3 2 4 3 3 2 2 5 3 3 1 2 3 6 4 3 5 8 6 5 2 2 1 2 3 3 3 2 5 7 4
9 7 5 4 5 8 11 12 15 17 19 21 5 3 1 7 1 3 1 3 1 1 2 2 3 1 3 5 5 5 2 2 1 2 4 4 7 2 1 2 1 3 4 3 3 5 7
10 7 6 5 6 7 9 12 14 16 19 9 2 3 2 3 2 2 3 3 2 1 2 3 2 3 2 4 4 4 2 3 1 1 3 4 2 2 4 3 4 3 3 4 3 4 4
11 8 8 7 7 8 9 10 11 15 20 4 2 2 2 1 1 2 2 2 1 2 1 1 3 2 3 3 4 3 3 1 2 1 4 3 5 6 13 2 1 4 6 7 3 3 7
12 9 8 9 8 8 9 9 10 12 13 4 3 2 2 2 1 3 3 2 1 2 2 1 2 2 1 2 4 3 3 1 4 3 2 1 3 6 2 3 2 3 4 8 9 8 14
13 12 9 10 10 9 8 7 7 10 10 4 3 2 2 2 1 1 3 2 2 1 2 2 2 3 3 5 6 4 5 2 3 5 2 3 5 8 10 13 13 19 19 11 11 9 14
15 13 12 11 11 9 7 6 4 6 9 3 2 1 3 1 2 2 1 1 3 3 3 3 3 9 5 4 5 6 6 6 6 2 4 4 6 11 18 18 19 22 24 19 20 22 17
17 15 13 12 12 11 9 7 5 4 6 2 3 2 2 2 2 4 2 6 6 3 4 4 6 3 7 7 8 14 14 14 11 6 5 3 4 3 8 16 15 19 22 17 19 20 22
18 16 15 14 12 12 11 9 8 6 2 2 1 1 3 3 3 3 3 4 6 3 6 6 5 6 9 11 9 12 14 15 16 12 6 4 3 2 6 4 6 15 16 11 8 10 10
19 18 16 15 14 13 12 12 11 9 7 2 1 2 3 3 6 5 4 5 7 9 9 3 6 8 1 2 10 14 17 17 16 16 13 6 5 2 5 6 5 5 5 5 9 13 15
19 18 17 16 15 14 13 13 13 12 10 4 2 3 3 4 7 6 9 7 7 8 9 11 11 6 2 4 5 6 6 4 5 3 7 12 8 4 4 9 16 12 2 1 2 8 12
21 19 18 17 16 14 13 13 12 13 11 4 3 2 2 2 8 4 6 9 7 8 7 6 1 1 3 3 2 3 4 5 4 4 1 4 11 4 4 6 8 5 3 2 1 8 8
22 20 19 17 15 14 14 12 12 12 13 6 3 5 2 3 4 6 6 5 5 4 5 2 4 4 3 3 4 4 6 3 5 6 5 4 4 12 11 7 10 4 7 4 3 3 11
23 21 19 18 15 14 13 13 13 12 14 8 1 7 2 3 4 8 8 9 4 6 6 5 2 3 4 4 3 4 4 2 3 7 4 8 6 5 5 5 9 5 4 5 5 7 9
23 20 18 16 14 13 13 12 12 12 14 14 3 1 1 2 3 6 11 12 13 12 6 5 5 4 3 2 3 2 3 2 5 8 2 5 10 6 7 5 2 6 6 8 8 9 6
Wind_Direction
47 43 37 32 27 23 17 12 7 3 2 359 357 357 356 355 349 352 351 354 11 38 52 57 41 345 282 110 38 352 343 353 356 357 17 354 19 352 23 67 68 89 121 95 109 142 245
53 46 38 31 24 18 13 9 5 1 359 356 354 353 353 353 348 349 351 17 36 59 63 46 355 311 271 80 344 354 353 6 16 16 29 30 28 11 59 30 350 53 142 130 169 178 199
53 45 35 26 20 16 11 6 3 2 359 354 351 351 352 353 351 352 357 43 53 58 48 7 331 287 65 68 350 351 7 15 12 17 29 30 8 350 326 107 34 131 168 207 209 207 253
47 35 27 19 15 10 8 6 5 0 357 355 351 348 350 351 351 355 0 44 29 11 296 310 290 265 67 13 332 357 356 6 40 40 49 21 8 57 2 102 158 269 262 286 124 193 160
37 26 20 13 8 5 2 4 0 358 355 355 352 349 348 349 350 354 344 312 314 265 284 292 252 283 74 201 348 349 4 347 328 61 51 21 322 55 188 286 229 179 329 329 327 200 257
25 16 7 3 2 2 4 2 357 356 354 353 350 350 347 347 345 351 332 294 311 255 245 244 225 172 66 355 331 331 356 333 329 308 224 251 238 268 19 5 14 327 328 323 315 114 244
11 8 5 3 359 357 2 358 354 352 350 349 349 347 346 344 342 349 323 252 214 134 39 41 25 44 13 338 283 13 358 321 284 243 353 29 28 25 9 7 337 318 312 310 319 39 286
349 356 0 2 357 355 355 352 347 347 344 348 346 343 341 339 341 351 344 49 35 3 93 48 28 64 358 337 310 20 343 338 2 17 332 211 54 26 344 316 311 300 308 334 338 346 292
339 345 353 356 356 351 350 345 344 345 344 345 347 341 336 333 333 17 71 56 332 324 258 82 43 16 355 328 31 358 355 332 360 13 10 21 51 349 324 326 334 329 323 334 311 315 280
332 341 347 351 356 355 349 344 345 344 344 345 346 341 335 332 341 357 53 353 322 314 215 25 29 49 322 320 194 356 7 334 23 358 349 24 40 342 335 340 340 318 350 317 307 319 332
324 339 344 346 347 343 341 342 344 343 344 345 341 337 337 8 6 39 348 330 297 254 318 24 18 352 339 17 328 56 346 289 11 358 312 46 347 342 325 339 323 299 327 308 308 290 306
305 316 330 336 339 337 340 344 343 344 342 343 342 337 335 302 72 32 333 194 243 218 276 34 335 357 331 28 24 338 5 70 334 296 237 11 16 296 332 309 270 300 299 281 270 282 257
305 312 323 330 339 339 344 343 341 342 343 342 340 339 2 326 18 343 301 231 223 3 154 23 352 353 343 358 14 8 12 40 27 343 1 314 179 102 324 311 195 332 337 323 300 288 313
280 302 317 328 338 345 341 339 337 339 341 337 332 323 11 46 345 306 225 227 32 50 25 42 323 307 357 0 68 351 335 44 46 358 297 335 308 356 12 355 319 333 340 1 315 330 313
260 285 304 318 334 334 333 335 331 334 343 336 325 234 262 45 334 249 251 48 35 37 16 332 267 283 114 50 312 329 37 29 35 12 3 335 292 131 27 327 323 15 332 2 282 269 272
240 252 263 280 310 322 321 324 327 333 337 339 326 289 34 346 200 251 301 80 101 32 321 270 340 332 321 358 318 343 353 73 80 13 339 12 294 98 47 258 170 299 347 263 200 303 311
240 247 260 258 286 299 311 318 325 334 337 339 270 272 73 359 218 252 48 64 118 123 315 311 334 298 311 326 316 324 356 131 205 31 314 322 266 296 257 202 332 239 232 229 284 248 286
236 242 255 257 262 279 296 316 330 340 341 284 303 272 60 262 266 29 69 42 31 177 209 274 296 301 298 323 295 301 298 306 127 306 314 50 305 285 286 30 193 252 264 267 269 233 237
245 238 251 260 260 267 283 313 333 342 359 318 299 307 133 292 284 104 131 148 266 209 239 247 254 256 280 277 287 246 273 149 194 236 316 94 208 298 180 150 162 236 232 262 285 289 256
245 244 238 251 257 262 276 298 326 331 339 303 284 250 98 68 45 125 171 180 199 163 243 251 272 230 238 246 225 272 260 215 203 233 98 185 238 234 266 294 314 290 274 245 248 267 259
245 243 242 241 250 253 257 272 290 319 333 302 331 92 358 175 119 120 222 173 205 223 223 219 219 234 229 269 250 245 268 266 241 182 209 234 257 247 261 277 283 280 279 272 255 251 258
242 241 239 239 243 246 248 247 257 282 320 251 289 222 187 119 158 199 178 202 216 198 226 207 242 260 238 256 268 301 297 291 281 177 220 194 270 300 276 274 274 282 271 267 262 264 260
240 237 234 231 235 244 247 239 228 239 276 269 150 166 288 129 202 221 220 203 201 176 215 248 252 271 262 274 293 282 284 282 270 262 208 205 236 278 276 334 324 281 277 237 225 230 247
237 235 232 232 229 235 238 241 230 217 205 288 203 249 239 221 218 221 204 205 222 223 268 249 227 246 26 311 292 269 260 259 259 254 253 221 204 207 279 295 230 313 275 296 282 269 275
230 231 231 230 232 232 234 236 235 222 214 231 175 215 223 253 216 223 217 220 243 243 249 255 251 274 4 295 285 291 272 228 223 240 235 229 199 245 253 252 283 289 90 41 276 289 295
224 221 227 231 230 228 232 235 236 230 219 239 227 283 238 257 224 211 201 215 238 251 239 222 244 60 217 260 232 248 265 321 250 180 151 207 225 209 209 253 272 20 145 128 146 279 44
222 217 215 221 226 228 230 233 236 231 220 218 238 201 211 231 236 186 209 211 188 214 262 210 178 176 225 222 230 244 261 236 247 251 181 171 198 224 236 256 274 13 137 180 275 298 317
214 213 210 210 216 225 230 232 225 225 221 206 270 207 172 231 248 216 223 209 192 213 228 134 208 193 182 216 240 232 247 223 284 262 252 208 200 205 219 235 272 107 126 253 357 337 344
206 203 204 207 208 217 224 232 233 221 213 209 227 183 231 207 278 283 265 264 260 262 253 187 231 146 172 188 223 250 259 239 258 281 146 249 215 261 215 253 37 174 344 34 3 304 322